Shaw Air Force Base, SC

7:56 PM EDT on August 25, 2016 (GMT -0400)
Shaw Air Force Base

Weather History for KSSC - December, 2013

Change the Weather History Date:

Wednesday, December 18, 2013

  Actual Average Record
Temperature  
Mean Temperature 44 °F -  
Max Temperature 55 °F 54 °F 77 °F (2008)
Min Temperature 33 °F 33 °F 22 °F (2007)
Degree Days  
Heating Degree Days 20    
Moisture  
Dew Point 24 °F    
Average Humidity 47    
Maximum Humidity 82    
Minimum Humidity 22    
Precipitation  
Precipitation 0.00 in - - ()
Sea Level Pressure  
Sea Level Pressure 30.23 in    
Wind  
Wind Speed 7 mph (WNW)    
Max Wind Speed 13 mph    
Max Gust Speed -    
Visibility 10 miles    
Events      
Averages and records for this station are not official NWS values.
T = Trace of Precipitation, MM = Missing Value Source: NWS Daily Summary

Daily Weather History Graph

Daily Weather History Graph

Search for Another Location

Airport or City:

Trip Planner

Search our weather history database for the weather conditions in past years. The results will help you decide how hot, cold, wet, or windy it might be!

Date:

Astronomy

Dec. 18, 2013 Rise Set
Actual Time 7:21 AM EST 5:15 PM EST
Civil Twilight 6:54 AM EST 5:43 PM EST
Nautical Twilight 6:22 AM EST 6:14 PM EST
Astronomical Twilight 5:52 AM EST 6:45 PM EST
Moon 6:42 PM EST (12/18) 8:03 AM EST (12/18)
Length of Visible Light 10h 49m
Length of Day
9h 53m
Full, 98% of the Moon is Illuminated
Dec 18
Full
Dec 25
Last Quarter
Jan 1
New
Jan 7
First Quarter
Jan 15
Full

Hourly Weather History & Observations

Time (EST) Temp. Windchill Dew Point Humidity Pressure Visibility Wind Dir Wind Speed Gust Speed Precip Events Conditions
12:58 AM 51.1 °F - 32.4 °F 49% 30.06 in 10.0 mi WSW 12.7 mph - N/A   Clear
1:58 AM 48.6 °F - 32.5 °F 54% 30.08 in 10.0 mi WNW 6.9 mph - N/A   Clear
2:58 AM 46.6 °F - 32.7 °F 59% 30.11 in 10.0 mi WNW 6.9 mph - N/A   Clear
3:58 AM 45.9 °F 41.7 °F 31.8 °F 58% 30.12 in 10.0 mi NW 8.1 mph - N/A   Clear
4:58 AM 44.1 °F 41.5 °F 28.6 °F 55% 30.13 in 10.0 mi NNW 4.6 mph - N/A   Clear
5:58 AM 42.3 °F 40.5 °F 26.4 °F 54% 30.17 in 10.0 mi NW 3.5 mph - N/A   Clear
6:58 AM 40.5 °F 37.3 °F 25.5 °F 55% 30.20 in 10.0 mi NW 4.6 mph - N/A   Clear
7:58 AM 40.8 °F 35.0 °F 23.4 °F 50% 30.23 in 10.0 mi NW 9.2 mph - N/A   Clear
8:58 AM 44.1 °F 38.6 °F 21.9 °F 42% 30.26 in 10.0 mi NNW 10.4 mph - N/A   Clear
9:58 AM 46.6 °F - 22.6 °F 39% 30.28 in 10.0 mi North 6.9 mph - N/A   Clear
10:58 AM 49.3 °F - 22.8 °F 35% 30.28 in 10.0 mi North 5.8 mph - N/A   Clear
11:58 AM 51.1 °F - 20.1 °F 30% 30.27 in 10.0 mi North 4.6 mph - N/A   Clear
12:58 PM 53.2 °F - 18.1 °F 25% 30.25 in 10.0 mi West 10.4 mph - N/A   Clear
1:58 PM 53.4 °F - 18.9 °F 26% 30.24 in 10.0 mi NNW 6.9 mph - N/A   Clear
2:58 PM 55.0 °F - 16.2 °F 22% 30.24 in 10.0 mi West 5.8 mph - N/A   Clear
3:58 PM 54.9 °F - 16.9 °F 22% 30.25 in 10.0 mi NNW 5.8 mph - N/A   Clear
4:58 PM 52.2 °F - 15.4 °F 23% 30.26 in 10.0 mi NW 4.6 mph - N/A   Clear
5:58 PM 47.7 °F - 20.1 °F 34% 30.27 in 10.0 mi West 2.3 mph - N/A   Clear
6:58 PM 41.0 °F - 23.5 °F 50% 30.28 in 10.0 mi Calm Calm - N/A   Clear
7:58 PM 37.6 °F - 25.0 °F 60% 30.30 in 10.0 mi SSW 2.3 mph - 0.00 in   Clear
8:58 PM 36.1 °F - 26.8 °F 69% 30.30 in 10.0 mi SW 2.3 mph - 0.00 in   Clear
9:58 PM 36.0 °F - 27.0 °F 70% 30.30 in 10.0 mi West 1.2 mph - N/A   Clear
10:58 PM 34.5 °F - 27.7 °F 76% 30.30 in 10.0 mi SSW 2.3 mph - N/A   Clear
11:58 PM 33.1 °F - 28.0 °F 82% 30.31 in 10.0 mi Calm Calm - N/A   Clear